Погода в Ныше

Россия / Сахалинская область     51°32′07″N   142°45′19″E
темп.,
°C
ветер,
м/с
пор.,
м/с
влажн.,
%
обл.,
%
осадки,
мм/ч
давл.,
гПа
погр.,
м
20 января, чт
чт2023:00−18зюз31092100 0.1 1022316
02:00−17з4139399 0.1 1021487
05:00−16з4996100 0.6 1020428
08:00−15зсз4995100 0.9 1021452
11:00−14зсз4994100 1.5 1021435
14:00−11сз5993100 0.3 1020477
17:00−13сз4119086 0.4 1021515
20:00−14зсз41285100 0.0 1022469
21 января, пт
пт2123:00−14сз41186100 0.1 1023479
02:00−14зсз4119099 0.3 1023464
05:00−15зсз41182100 0.3 1023436
08:00−16з3980100 0.0 1024324
11:00−16зсз3117998 0.0 1024401
14:00−13зсз487959 0.0 1024479
17:00−14зсз378622 0.0 1024335
20:00−21зюз2297100 0.0 102540
22 января, сб
сб2223:00−22зюз229580 0.0 102537
02:00−24юз229846 0.0 102526
05:00−25юз22985 0.0 102528
08:00−26юз22985 0.0 102524
11:00−20зюз23935 0.0 102576
14:00−13з24805 0.0 1024361
17:00−14з24895 0.0 1023140
20:00−23юз221005 0.0 102529
23 января, вс
вс2323:00−23юз24985 0.0 102447
02:00−23юз24965 0.0 102455
05:00−23юз25966 0.0 102356
08:00−23юз25955 0.0 102357
11:00−18юз25915 0.0 1022117
14:00−12зюз46795 0.0 1020416
17:00−14зюз388785 0.0 1020333
20:00−21юз24975 0.0 102050
24 января, пн
пн2423:00−22юз34975 0.0 102060
02:00−22юз36966 0.0 101975
05:00−22юз35965 0.0 101967
08:00−23юз24975 0.0 101963
11:00−19юз36936 0.0 1019145
14:00−13з498352 0.0 1018486
17:00−14зюз410875 0.0 1019519
20:00−20юз369875 0.0 102085